History for ZHCC

Zhengzhou, HE

Daily Weekly Monthly
Daily Summary for Thursday, March 21, 2019
  Actual: Average: Record:
Temperature
Mean Temperature: 56 °F / 14 °C - :  
Max Temperature: 64 °F / 18 °C - - ()
Min Temperature: 48 °F / 9 °C - - ()
Degree Days
Heating Degree Days: 9    
Growing Degree Days 6 (Base 50)    
Moisture
Dew Point 20 °F / -7 °C    
Average Humidity 24    
Maximum Humidity 63    
Minimum Humidity 5    
Precipitation
Precipitation 0.00 in / 0.0 cm - - ()
Sea Level Pressure
Sea Level Pressure 30.09 in / 1018.85 hPa   
Wind
Wind Speed 9 mph / 14 km/h ()  
Max Wind Speed 20 mph / 32 km/h   
Max Gust Speed 29 mph / 47 km/h   
Visibility 11.8 miles / 18.9 kilometers   
Events     

Key: T is trace of precipitation, MM is missing value
Source: Averaged Metar Reports

Graphs

Observations

History Graphs Observations

Obs Go Here...

Features

Weather Apps

WunderRadio

Weather Underground Apps
Check out our wide variety of mobile and setup applications.

Weather Underground Applications

Top of Page

© Copyright 2019
The Weather Company, LLC
Time(CST)TemperatureDew PointHumidity Sea Level Pressure Visibility Wind DirectionWind SpeedGust SpeedPrecipitationEvents Conditions
12:00 AM 60.8 °F / 16.0 °C 48.2 °F / 9.0 °C 63% 29.86 in / 1011 hPa 3.1 miles / 5.0 kilometers WNW 6.7 mph / 10.8 km/h - N/A   Haze
1:00 AM 62.6 °F / 17.0 °C 44.6 °F / 7.0 °C 52% 29.89 in / 1012 hPa 3.1 miles / 5.0 kilometers NW 8.9 mph / 14.4 km/h - N/A   Haze
2:00 AM 64 °F / 18 °C 26 °F / -4 °C 13% 29.91 in / 1013 hPa 9 miles / 15 kilometers NW 8.9 mph / 14.4 km/h - -  
2:00 AM 62.6 °F / 17.0 °C 28.4 °F / -2.0 °C 27% 29.89 in / 1012 hPa - NW 13.4 mph / 21.6 km/h - N/A   Clear
3:00 AM 60.8 °F / 16.0 °C 24.8 °F / -4.0 °C 25% 29.89 in / 1012 hPa - NW 13.4 mph / 21.6 km/h 29.1 mph / 46.8 km/h N/A   Clear
4:00 AM 60.8 °F / 16.0 °C 21.2 °F / -6.0 °C 22% 29.92 in / 1013 hPa - NW 13.4 mph / 21.6 km/h - N/A   Clear
5:00 AM 59 °F / 15 °C 18 °F / -8 °C 10% 29.96 in / 1014 hPa 16 miles / 26 kilometers WNW 6.7 mph / 10.8 km/h - -  
5:00 AM 59.0 °F / 15.0 °C 23.0 °F / -5.0 °C 25% 29.95 in / 1014 hPa - NNE 11.2 mph / 18.0 km/h - N/A   Clear
7:00 AM 53.6 °F / 12.0 °C 24.8 °F / -4.0 °C 33% 30.06 in / 1018 hPa - NNE 11.2 mph / 18.0 km/h - N/A   Clear
8:00 AM 54 °F / 12 °C 24 °F / -5 °C 19% 30.12 in / 1020 hPa 11 miles / 18 kilometers East 4.5 mph / 7.2 km/h - -   Mostly Cloudy
8:00 AM 53.6 °F / 12.0 °C 17.6 °F / -8.0 °C 24% 30.09 in / 1019 hPa - NE 13.4 mph / 21.6 km/h - N/A   Clear
9:00 AM 53.6 °F / 12.0 °C 10.4 °F / -12.0 °C 18% 30.12 in / 1020 hPa - NE 15.7 mph / 25.2 km/h - N/A   Clear
10:00 AM 55.4 °F / 13.0 °C 6.8 °F / -14.0 °C 14% 30.15 in / 1021 hPa - NE 17.9 mph / 28.8 km/h - N/A   Clear
11:00 AM 57 °F / 14 °C 6 °F / -14 °C 5% 30.17 in / 1022 hPa 14 miles / 22 kilometers ENE 13.4 mph / 21.6 km/h - -   Mostly Cloudy
11:00 AM 55.4 °F / 13.0 °C 6.8 °F / -14.0 °C 14% 30.15 in / 1021 hPa - NE 20.1 mph / 32.4 km/h - N/A   Clear
1:00 PM 53.6 °F / 12.0 °C 12.2 °F / -11.0 °C 19% 30.18 in / 1022 hPa - NE 15.7 mph / 25.2 km/h - N/A   Clear
3:00 PM 53.6 °F / 12.0 °C 17.6 °F / -8.0 °C 24% 30.15 in / 1021 hPa - NE 11.2 mph / 18.0 km/h - N/A   Clear
4:00 PM 51.8 °F / 11.0 °C 14.0 °F / -10.0 °C 22% 30.15 in / 1021 hPa - NE 11.2 mph / 18.0 km/h - N/A   Clear
5:00 PM 52 °F / 11 °C 16 °F / -9 °C 13% 30.18 in / 1022 hPa 19 miles / 30 kilometers ESE 4.5 mph / 7.2 km/h - -   Overcast
5:00 PM 51.8 °F / 11.0 °C 15.8 °F / -9.0 °C 24% 30.15 in / 1021 hPa - NE 8.9 mph / 14.4 km/h - N/A   Clear
6:00 PM 50.0 °F / 10.0 °C 17.6 °F / -8.0 °C 28% 30.18 in / 1022 hPa - Variable 2.2 mph / 3.6 km/h - N/A   Clear
7:00 PM 50.0 °F / 10.0 °C 17.6 °F / -8.0 °C 28% 30.18 in / 1022 hPa - SE 4.5 mph / 7.2 km/h - N/A   Clear
8:00 PM 50.0 °F / 10.0 °C 17.6 °F / -8.0 °C 28% 30.21 in / 1023 hPa - Variable 2.2 mph / 3.6 km/h - N/A   Clear
9:00 PM 50.0 °F / 10.0 °C 19.4 °F / -7.0 °C 30% 30.24 in / 1024 hPa - Variable 2.2 mph / 3.6 km/h - N/A   Clear
10:00 PM 48.2 °F / 9.0 °C 19.4 °F / -7.0 °C 32% 30.27 in / 1025 hPa - SE 2.2 mph / 3.6 km/h - N/A   Clear
11:00 PM 51 °F / 10 °C 18 °F / -8 °C 15% 30.28 in / 1025 hPa 19 miles / 30 kilometers SSE 2.2 mph / 3.6 km/h - -